Location: Unspecified
(0.0000°N, 0.0000°E)
Time: 11:03:58
(UTC+00:00)

Vanguard 1 - Pass Details

Date: 28 November 2019
Orbit: 651 x 3832 km, 34.3° (Epoch: 14 December)

Event Time Altitude Azimuth Distance (km) Brightness Sun altitude
Rises 18:01:24 0° 266° (W) 3,079 14.4 -3.1°
Reaches altitude 10° 18:04:16 10° 245° (WSW) 2,348 14.1 -3.8°
Maximum altitude 18:07:51 18° 202° (SSW) 2,167 12.5 -4.6°
Drops below altitude 10° 18:12:32 10° 162° (SSE) 3,188 12.7 -5.7°
Sets 18:17:27 0° 145° (SE) 4,762 13.4 -6.9°
